Location: Blangermont
(50.3293°N, 2.2201°E)
Time: 06:18:55
(UTC+00:00)

Daily predictions for brighter satellites

Satellite Brightness Start Highest point End
(mag) Time Altitude Azimuth Time Altitude Azimuth Time Altitude Azimuth
Cosmos 2123 Rocket 4.2 19:35:10 10° N 19:41:20 59° ENE 19:47:31 10° SSE
Cosmos 2239 Rocket 4.5 19:37:54 10° S 19:43:58 69° E 19:50:08 10° NNE
Meteor 1-27 Rocket 4.0 19:40:43 10° NNW 19:46:42 85° W 19:52:38 10° S
OPS 6432 4.4 19:45:47 10° SW 19:49:50 77° SE 19:53:01 10° NE
ERBS 4.3 19:49:14 10° WNW 19:52:04 25° N 19:54:53 10° NE
Okean 1 4.5 19:48:54 10° N 19:52:26 28° ENE 19:55:58 10° SE
Cosmos 1707 Rocket 3.8 19:48:26 10° NNW 19:52:47 75° W 19:57:05 10° S
Cosmos 1605 Rocket 4.5 19:47:28 10° SSE 19:53:03 39° E 19:58:37 10° NNE
CZ-2C R/B 2.6 19:48:31 10° NNE 19:53:44 77° ESE 19:58:59 10° S
ARGOS 4.4 19:49:16 10° SSW 19:54:22 42° W 19:59:28 10° NNW
Cosmos 192 4.4 19:50:28 10° NNW 19:55:24 84° WSW 20:00:19 10° SSE
NOSS 3-2 (A) 3.5 19:50:44 10° SSW 19:56:18 56° ESE 20:02:40 10° NE
Cosmos 2219 Rocket 4.3 19:53:12 10° N 19:56:39 16° NNE 20:00:06 10° ENE
USA 267 4.3 19:53:13 10° ENE 19:57:58 21° SE 20:02:39 10° S
SL-16 R/B 2.6 19:55:33 10° NNW 20:01:06 51° NE 20:06:27 11° SE
SL-4 R/B 1.9 19:58:21 10° W 20:02:26 83° N 20:06:11 10° ENE
BREEZE-M DEB (TANK) 2.1 20:00:57 10° WSW 20:03:26 69° SSE 20:09:06 10° E
Cosmos 2242 Rocket 4.2 20:00:58 10° N 20:05:09 39° ENE 20:09:08 11° SE
SL-27 R/B 4.0 20:04:27 12° SE 20:06:15 16° E 20:08:24 10° ENE
NOSS 3-2 (C) 3.7 20:01:43 10° S 20:07:04 43° ESE 20:13:09 10° NE
Cosmos 1470 Rocket 3.8 20:03:36 10° SSE 20:07:48 47° E 20:12:01 10° NNE
Sich 1 3.8 20:04:16 10° SSW 20:08:38 58° WNW 20:13:02 10° N
BREEZE-M DEB (TANK) 1.7 20:07:50 10° W 20:10:58 71° S 20:12:31 14° E
Cosmos 2082 Rocket 2.4 20:06:01 10° SSW 20:11:43 81° WNW 20:17:25 10° NNE
USA 186 4.2 20:12:17 10° WSW 20:13:14 12° W 20:14:12 10° WNW
Meteor 2-20 Rocket 4.5 20:07:52 10° N 20:14:05 87° ENE 20:20:15 10° S
Meteor 1-4 Rocket 3.5 20:13:28 10° NNW 20:16:48 44° W 20:20:06 10° S
Cosmos 2322 Rocket 2.5 20:12:50 10° NNW 20:18:28 56° NE 20:23:14 14° SE
ERS-1 Rocket 4.0 20:16:14 13° ESE 20:19:58 30° ENE 20:24:20 10° N
Cosmos 1862 Rocket 3.7 20:16:07 10° NNW 20:20:36 78° W 20:24:59 10° S
Cosmos 1850 Rocket 4.3 20:19:25 10° S 20:24:24 44° ESE 20:29:24 10° NE
Cosmos 841 Rocket 4.0 20:20:57 10° NNW 20:26:00 46° ENE 20:29:56 16° SE
Meteor 1-25 Rocket 4.2 20:20:51 10° S 20:26:22 67° E 20:32:00 10° NNE
Cosmos 676 Rocket 4.2 20:21:53 10° SSW 20:27:13 79° WNW 20:32:36 10° NNE
Cosmos 2360 Rocket 3.0 20:22:11 10° NNW 20:27:33 40° NE 20:31:48 15° ESE
SPOT 1/Viking Rocket 3.9 20:23:32 14° SE 20:27:48 49° ENE 20:32:50 10° N
USA 276 2.5 20:25:15 10° W 20:28:21 50° SSW 20:30:11 21° SE
Meteor 1-18 Rocket 4.2 20:23:16 10° N 20:28:51 69° ENE 20:33:52 13° SSE
X-37B 2.1 20:26:26 10° WSW 20:29:02 24° SSW 20:30:22 18° SSE
USA 32 4.0 20:23:54 10° S 20:29:06 73° E 20:34:21 10° N
Terra 3.2 20:27:56 14° ESE 20:30:52 24° ENE 20:34:41 10° N
ATLAS 3B R/B 3.4 20:27:05 10° SSE 20:32:24 27° ESE 20:37:44 10° ENE
IGS 5A 3.6 20:29:39 16° SSE 20:32:53 60° ENE 20:37:00 10° N
Cosmos 1238 Rocket 2.0 20:30:32 11° S 20:33:19 65° E 20:36:22 10° NNE
Cosmos 468 Rocket 4.1 20:29:45 10° NNW 20:35:06 80° WSW 20:39:43 14° SSE
CZ-2C R/B 3.9 20:30:46 10° NNE 20:35:22 75° WNW 20:39:51 10° SSW
USA 234 3.6 20:29:06 10° E 20:35:32 64° NNE 20:42:00 10° WNW
Cosmos 1980 Rocket 3.6 20:31:13 10° NW 20:36:16 34° WSW 20:41:17 10° S
Cosmos 44 3.3 20:31:57 10° NW 20:36:53 86° NE 20:40:36 19° SE
Cosmos 1934 Rocket 4.3 20:31:21 10° SSW 20:37:42 72° W 20:44:05 10° N
Lacrosse 5 2.5 20:33:18 10° WNW 20:38:11 48° SW 20:41:50 17° SSE
Resurs 01 Rocket 2.2 20:35:32 10° S 20:39:53 57° W 20:44:17 10° NNW
Cosmos 1602 3.7 20:37:56 10° S 20:41:50 69° E 20:45:46 10° NNE
CARTOSAT-1 4.2 20:40:31 20° SE 20:43:01 40° ENE 20:47:04 10° N
GP-B 3.1 20:39:22 10° N 20:43:51 84° W 20:48:17 10° S
Cosmos 1933 Rocket 3.5 20:43:54 10° S 20:48:19 84° E 20:52:48 10° NNE
Cosmos 1814 Rocket 4.2 20:48:34 10° NNW 20:53:46 61° ENE 20:56:56 24° SE
COSMOS 2428 4.2 20:48:56 10° NNW 20:53:47 27° NE 20:57:48 13° E
Cosmos 405 Rocket 2.8 20:50:58 10° SSW 20:54:40 74° WNW 20:58:28 10° N
Spot 2 Rocket 3.5 20:51:17 17° SSE 20:55:19 87° WSW 21:00:27 10° NNW
USA 238 DEB 3.9 20:50:10 10° SW 20:56:51 77° NW 21:03:51 10° NE
USA 238 3.9 20:50:16 10° SW 20:56:56 77° NW 21:03:58 10° NE
Cosmos 1515 3.6 20:53:30 10° N 20:57:22 88° W 20:59:37 24° S
Cosmos 2237 Rocket 4.4 20:54:10 10° N 20:57:41 16° NNE 21:01:11 10° ENE
Okean 1-7 2.9 20:54:52 10° N 20:59:13 87° E 21:01:51 23° S
CENTAUR R/B 2.5 20:53:59 10° SW 21:00:00 80° SE 21:07:14 10° NE
Cosmos 1869 Rocket 3.9 20:57:44 24° SSE 21:00:01 47° E 21:04:20 10° NNE
Cosmos 1741 Rocket 3.9 20:58:00 10° SSW 21:03:16 84° ESE 21:08:36 10° NNE
Cosmos 1437 Rocket 2.9 21:01:19 10° NNW 21:05:06 66° W 21:07:19 23° S
FALCON 9 DEB 3.9 21:03:29 10° W 21:06:55 53° N 21:09:36 15° ENE
OBJECT-B 3.8 21:05:53 10° WSW 21:07:32 13° W 21:09:11 10° WNW
Cosmos 1763 Rocket 4.2 21:04:09 10° NNW 21:09:17 49° WSW 21:13:14 16° S
Cosmos 1703 Rocket 3.8 21:05:11 10° NNW 21:09:31 67° W 21:12:20 21° S
H-2A R/B 3.7 21:06:02 10° N 21:10:09 69° WNW 21:14:17 10° SSW
Cosmos 1570 Rocket 4.1 21:06:29 10° NNW 21:11:51 82° WSW 21:14:58 26° SSE
Cosmos 2333 Rocket 3.1 21:06:39 10° NNW 21:12:03 38° NE 21:15:19 21° ESE
ATLAS 5 CENTAUR R/B 2.1 21:10:05 10° NW 21:12:31 55° NE 21:14:58 25° ESE
Cosmos 2084 Rocket 3.4 21:09:55 10° SW 21:14:07 83° NW 21:18:28 10° NE
SWARM C 4.4 21:14:25 10° N 21:17:47 87° E 21:18:41 45° S
SWARM A 4.2 21:14:31 10° N 21:17:52 85° W 21:18:54 42° S
Landsat 7 4.4 21:15:20 18° S 21:18:46 53° W 21:23:27 10° NNW
SPOT 5 2.5 21:17:39 33° SSE 21:19:32 77° ENE 21:24:01 10° NNW
Meteor 1-5 Rocket 4.4 21:18:35 23° S 21:22:22 63° E 21:28:11 10° NNE
Cosmos 2208 Rocket 4.0 21:18:05 10° NNW 21:23:21 78° WSW 21:25:58 30° SSE
ERBS 3.5 21:25:52 10° NW 21:28:59 36° NNE 21:30:13 26° ENE
Cosmos 1733 Rocket 3.9 21:29:41 32° ESE 21:30:05 32° E 21:34:03 10° NNE
Cosmos 1356 4.1 21:30:29 38° E 21:30:29 38° E 21:33:22 10° NNE
Meteor 1-11 Rocket 3.9 21:31:46 33° SSE 21:34:07 53° E 21:39:46 10° NNE
Tsikada Rocket 4.3 21:29:51 10° N 21:36:05 54° ENE 21:38:45 33° SE
Lacrosse 4 Rocket 1.9 21:37:37 40° ESE 21:37:37 40° ESE 21:41:11 10° NE
Cosmos 968 Rocket 4.5 21:37:25 27° E 21:37:25 27° E 21:41:41 10° NE
GENESIS II 4.2 21:36:29 10° NW 21:40:31 79° NE 21:41:16 56° ESE
SL-27 R/B 3.8 21:37:57 10° SW 21:41:04 37° WNW 21:44:12 10° N
Cosmos 2100 Rocket 3.9 21:36:57 19° S 21:41:28 86° W 21:47:40 10° N
Meteor 2-4 Rocket 4.1 21:36:02 10° NNW 21:41:32 58° W 21:44:40 25° SSW
USA 267 3.2 21:35:20 10° ENE 21:41:51 64° SE 21:48:20 10° SW
Cosmos 2219 Rocket 2.6 21:36:25 10° NNW 21:42:00 52° NE 21:44:23 32° ESE
Cosmos 540 Rocket 4.1 21:37:01 10° NNW 21:42:01 49° WSW 21:44:28 28° SSW
SL-4 R/B 1.8 21:38:18 10° WNW 21:42:10 77° N 21:42:59 51° E
SL-16 R/B 3.5 21:40:01 10° NW 21:45:01 33° WSW 21:48:20 18° SSW
Cosmos 2173 Rocket 3.9 21:41:11 21° S 21:45:27 85° W 21:51:36 10° N
Cosmos 1242 Rocket 2.6 21:47:11 10° N 21:50:49 62° ENE 21:50:53 61° E
SAR-Lupe-2 3.8 21:49:43 10° N 21:53:18 69° WNW 21:54:05 50° SW
Meteor 1-23 Rocket 4.3 21:49:24 10° N 21:55:15 70° ENE 21:57:14 42° SE
Cosmos 2322 3.6 21:49:45 10° NNW 21:55:28 85° ENE 21:57:25 43° SSE
NOSS 3-2 (C) 4.3 21:52:02 10° WSW 21:57:50 54° NW 22:04:36 10° NE
Cosmos 1725 Rocket 4.0 21:55:18 36° S 21:58:02 71° E 22:04:21 10° NNE
Cosmos 1459 Rocket 4.2 21:53:46 20° SSW 21:58:22 72° WNW 22:04:46 10° N
ERS-1 Rocket 3.8 21:56:14 26° SSW 21:58:37 45° W 22:03:26 10° NNW
Cosmos 2346 Rocket 4.4 21:54:49 10° NNW 22:00:54 79° W 22:03:31 36° S
Cosmos 1833 4.1 21:58:11 31° SSW 22:00:55 74° ESE 22:06:37 10° NNE
Meteor 1-13 Rocket 4.4 21:55:37 10° NNW 22:01:06 64° W 22:03:23 35° SSW
Cosmos 1500 4.4 22:00:28 24° SW 22:02:07 38° WNW 22:05:40 10° N
Cosmos 2322 Rocket 3.6 21:57:21 10° NW 22:02:14 30° WSW 22:05:03 20° SSW
SL-08 R/B 4.3 21:59:40 37° S 22:02:14 77° E 22:08:22 10° NNE
Cosmos 1536 2.6 22:03:04 76° SE 22:03:18 80° E 22:07:17 10° NNE
Cosmos 1378 Rocket 3.8 22:00:02 10° N 22:04:24 54° ENE 22:04:52 51° E
Cosmos 2221 Rocket 3.9 21:59:58 10° NNW 22:04:26 61° W 22:05:37 44° SSW
Cosmos 2016 Rocket 4.0 22:02:20 30° S 22:05:41 88° W 22:12:08 10° N
JB-3 4.2 22:02:45 10° NNE 22:06:51 80° ESE 22:07:09 73° SSE
Okean 3 4.3 22:03:19 10° NNW 22:07:26 44° W 22:08:38 35° SW
Terra 2.3 22:06:49 38° SSW 22:08:19 53° W 22:13:00 10° NNW
Cosmos 2333 4.2 22:04:33 10° NNW 22:10:22 77° WSW 22:12:06 47° SSE
Cosmos 2360 Rocket 2.9 22:06:16 10° NW 22:11:37 44° WSW 22:13:33 32° SSW
COSMOS 2487 2.8 22:12:29 59° NNE 22:12:29 59° NNE 22:15:21 10° NNE
Cosmos 1666 2.8 22:12:27 60° WSW 22:12:47 64° WNW 22:16:33 10° N
SL-16 R/B 4.2 22:09:15 10° N 22:13:26 20° NE 22:17:36 10° E
USA 234 3.3 22:16:21 41° SSE 22:18:36 64° SW 22:25:07 10° WNW
Iridium 4 Rocket 3.9 22:18:30 32° SW 22:19:48 42° W 22:23:47 10° N
Cosmos 1864 Rocket 4.5 22:17:15 35° SSW 22:20:04 82° W 22:26:25 10° N
Cosmos 1378 3.3 22:17:52 10° N 22:21:16 68° NNE 22:21:16 68° NNE
MOS 1-B Rocket 3.8 22:16:22 10° NNE 22:21:57 62° ESE 22:23:10 50° SSE
ATLAS 3B R/B 2.6 22:15:49 10° SW 22:22:25 80° NW 22:29:09 10° NE
Cosmos 1975 Rocket 4.1 22:22:59 10° N 22:27:06 34° ENE 22:27:17 34° ENE
Cosmos 2297 Rocket 3.9 22:32:12 18° E 22:32:12 18° E 22:35:03 10° ENE
Cosmos 1743 3.1 22:35:21 56° NE 22:35:21 56° NE 22:38:36 10° NNE
Okean 2 3.9 22:30:43 10° N 22:34:30 49° ENE 22:34:30 49° ENE
Thor Agena Rocket 3.7 22:29:54 10° NNE 22:34:53 50° E 22:35:03 50° ESE
Cosmos 1980 4.2 22:29:44 10° NNW 22:35:18 52° NE 22:36:58 39° ESE
Cosmos 1975 4.1 22:36:14 31° ENE 22:36:14 31° ENE 22:39:02 10° NNE
Cosmos 2233 Rocket 3.9 22:34:08 46° S 22:36:11 86° E 22:42:33 10° N
COSMOS 2428 2.7 22:32:54 10° NNW 22:38:40 75° WSW 22:39:48 57° S
Cosmos 44 Rocket 3.4 22:37:44 10° NW 22:42:40 61° SW 22:42:56 60° SW
Cosmos 2237 Rocket 2.6 22:37:30 10° NNW 22:43:04 55° NE 22:44:34 42° ESE
Cosmos 1271 Rocket 3.1 22:41:12 10° NNW 22:44:31 58° NW 22:44:31 58° NW
Cosmos 2219 4.4 22:46:31 26° E 22:46:31 26° E 22:50:25 10° NE
Cosmos 1464 Rocket 4.4 22:46:12 41° ESE 22:47:10 44° E 22:52:58 10° NNE
Cosmos 783 Rocket 4.4 22:42:14 10° NNW 22:47:31 80° ENE 22:48:13 67° SE
NOSS 0 Rocket 3.9 22:44:01 10° NNW 22:50:19 86° ENE 22:51:50 55° SE
Cosmos 1674 Rocket 4.3 22:46:40 10° NNW 22:50:47 43° W 22:51:00 43° WSW
CENTAUR R/B 4.1 22:45:22 10° W 22:51:25 40° NNW 22:58:32 10° NE
Cosmos 2333 Rocket 2.7 22:50:57 10° NW 22:56:28 47° WSW 22:57:19 44° SW
Geosat 3.8 22:58:12 73° S 22:58:37 80° WSW 23:03:42 10° NNW
Cosmos 1503 Rocket 3.9 22:58:15 71° S 22:58:50 82° ESE 23:04:13 10° NNE
Cosmos 1486 Rocket 4.5 23:02:24 39° WSW 23:04:05 57° WNW 23:09:14 10° NNE
Meteor 2-11 Rocket 4.4 23:06:27 53° SSW 23:07:58 78° W 23:14:07 10° N
DNEPR-1 R/B 4.0 23:07:54 10° NW 23:13:59 76° NE 23:14:43 64° ESE
Sich 1 Rocket 4.2 23:15:13 46° ENE 23:15:13 46° ENE 23:18:49 10° NNE
Lacrosse 4 Rocket 3.1 23:13:52 20° W 23:16:00 31° NW 23:19:45 10° NNE
ALOS 2 2.7 23:17:00 74° NW 23:17:00 74° NW 23:21:06 10° NNW
Cosmos 773 Rocket 3.8 23:12:16 10° NNW 23:17:27 86° WSW 23:17:38 83° S
Helios 1A 3.8 23:18:09 43° ENE 23:18:09 43° ENE 23:21:59 10° N
Cosmos 968 Rocket 4.1 23:17:24 37° WSW 23:18:56 50° WNW 23:23:57 10° NNE
Cosmos 2034 Rocket 4.2 23:19:27 50° SE 23:20:26 56° E 23:26:37 10° NNE
Cosmos 2227 Rocket 3.0 23:22:00 36° E 23:22:00 36° E 23:26:44 10° NE
SL-4 R/B 4.4 23:18:07 10° W 23:18:33 13° W 23:18:33 13° W
Cosmos 1072 Rocket 4.3 23:20:38 63° S 23:21:39 82° E 23:27:48 10° N
Cosmos 1707 3.7 23:18:42 10° N 23:21:46 44° NNE 23:21:46 44° NNE
Cosmos 1891 Rocket 4.5 23:21:56 60° S 23:23:14 82° E 23:29:38 10° N
USA 267 3.6 23:18:27 10° ENE 23:24:54 64° NNW 23:31:21 10° W
Cosmos 2219 Rocket 3.2 23:20:45 10° NW 23:25:43 32° WSW 23:26:05 32° WSW
EO 1 Del DPAF 4.1 23:25:12 10° N 23:28:12 47° NNW 23:28:12 47° NNW
Cosmos 1536 Rocket 4.4 23:25:48 10° N 23:29:39 42° ENE 23:29:39 42° ENE
Cosmos 1782 Rocket 3.9 23:35:17 61° NW 23:35:17 61° NW 23:39:14 10° N
Cosmos 1538 Rocket 3.8 23:30:11 10° NNW 23:35:24 87° ENE 23:35:35 84° SE
Cosmos 1607 3.9 23:39:23 10° NW 23:45:53 87° NE 23:47:26 56° SE
Helios 1B rocket 4.1 23:51:41 10° NE 23:54:18 24° ENE 23:54:18 24° ENE
